Ardmore, OK

11:32 AM CDT on March 24, 2017 (GMT -0500)
Ardmore Municipal

Weather History for KADM - March, 2014

Change the Weather History Date:

Friday, March 7, 2014

  Actual Average Record
Temperature  
Mean Temperature 47 °F -  
Max Temperature 66 °F 58 °F 78 °F (2006)
Min Temperature 28 °F 39 °F 25 °F (2015)
Degree Days  
Heating Degree Days 18    
Moisture  
Dew Point 36 °F    
Average Humidity 80    
Maximum Humidity 100    
Minimum Humidity 40    
Precipitation  
Precipitation 0.00 in - - ()
Sea Level Pressure  
Sea Level Pressure 29.93 in    
Wind  
Wind Speed 4 mph (SE)    
Max Wind Speed 23 mph    
Max Gust Speed 29 mph    
Visibility 6 miles    
Events      
Averages and records for this station are not official NWS values.
T = Trace of Precipitation, MM = Missing Value Source: NWS Daily Summary

Daily Weather History Graph

Daily Weather History Graph

Search for Another Location

Airport or City:

Trip Planner

Search our weather history database for the weather conditions in past years. The results will help you decide how hot, cold, wet, or windy it might be!

Date:

Astronomy

Mar. 07, 2014 Rise Set
Actual Time 6:49 AM CST 6:29 PM CST
Civil Twilight 6:24 AM CST 6:54 PM CST
Nautical Twilight 5:55 AM CST 7:23 PM CST
Astronomical Twilight 5:26 AM CST 7:52 PM CST
Moon 10:58 AM CST (3/7) 12:20 AM CST (3/7)
Length of Visible Light 12h 30m
Length of Day
11h 40m
Waxing Crescent, 42% of the Moon is Illuminated
Mar 7
Waxing Crescent
Mar 8
First Quarter
Mar 16
Full
Mar 23
Last Quarter
Mar 30
New

Hourly Weather History & Observations

Time (CST) Temp. Windchill Dew Point Humidity Pressure Visibility Wind Dir Wind Speed Gust Speed Precip Events Conditions
12:15 AM 31.1 °F - 31.1 °F 100% 30.03 in 5.0 mi Calm Calm - N/A   Clear
12:35 AM 31.1 °F - 30.9 °F 99% 30.02 in 3.0 mi Calm Calm - N/A   Clear
12:55 AM 29.5 °F - 29.5 °F 100% 30.02 in 1.0 mi Calm Calm - N/A   Mist
1:15 AM 29.3 °F - 29.3 °F 100% 30.01 in 1.8 mi Calm Calm - N/A   Mist
1:35 AM 30.4 °F 26.9 °F 30.4 °F 100% 30.00 in 0.8 mi ESE 3.5 mph - N/A   Mist
1:55 AM 29.3 °F - 29.3 °F 100% 29.99 in 1.2 mi Calm Calm - N/A   Mist
2:15 AM 30.2 °F - 30.0 °F 99% 29.99 in 7.0 mi Calm Calm - N/A   Clear
2:35 AM 31.1 °F - 31.1 °F 100% 29.99 in 5.0 mi Calm Calm - N/A   Clear
2:55 AM 30.7 °F 27.3 °F 30.7 °F 100% 29.98 in 4.0 mi East 3.5 mph - N/A   Clear
3:15 AM 28.4 °F 24.6 °F 28.4 °F 100% 29.98 in 2.5 mi East 3.5 mph - N/A   Clear
3:35 AM 29.5 °F - 29.5 °F 100% 29.97 in 2.5 mi Calm Calm - N/A   Clear
3:55 AM 30.6 °F - 30.6 °F 100% 29.97 in 1.8 mi Calm Calm - N/A   Mist
4:15 AM 32.7 °F - 32.5 °F 99% 29.97 in 3.0 mi Calm Calm - N/A   Clear
4:35 AM 32.4 °F - 32.4 °F 100% 29.97 in 2.5 mi Calm Calm - N/A   Clear
4:55 AM 32.9 °F - 32.9 °F 100% 29.97 in 1.8 mi Calm Calm - N/A   Mist
5:15 AM 32.4 °F 27.9 °F 32.4 °F 100% 29.97 in 3.0 mi ESE 4.6 mph - N/A   Clear
5:35 AM 32.9 °F - 32.9 °F 100% 29.97 in 3.0 mi Calm Calm - N/A   Clear
6:55 AM 32.0 °F - 30.2 °F 93% 29.98 in 2.0 mi Calm Calm - N/A   Clear
7:55 AM 33.8 °F 30.8 °F 33.8 °F 100% 29.99 in 2.0 mi ENE 3.5 mph - N/A   Clear
8:55 AM 42.8 °F 39.3 °F 41.0 °F 93% 29.99 in 4.0 mi SE 5.8 mph - N/A   Clear
9:55 AM 48.2 °F - 41.0 °F 76% 29.97 in 7.0 mi SSE 10.4 mph - N/A   Clear
11:55 AM 51.8 °F - 41.0 °F 67% 29.95 in 7.0 mi SSE 12.7 mph - N/A   Clear
12:55 PM 55.4 °F - 42.8 °F 63% 29.92 in 10.0 mi SSE 15.0 mph 21.9 mph N/A   Clear
1:55 PM 60.8 °F - 42.8 °F 52% 29.89 in 10.0 mi SSE 16.1 mph 23.0 mph N/A   Clear
2:55 PM 66.2 °F - 42.8 °F 43% 29.81 in 10.0 mi SE 19.6 mph 24.2 mph N/A   Clear
3:55 PM 64.4 °F - 41.0 °F 42% 29.80 in 10.0 mi SSE 23.0 mph 28.8 mph N/A   Clear
4:55 PM 66.2 °F - 41.0 °F 40% 29.79 in 10.0 mi SSE 15.0 mph 24.2 mph N/A   Clear
5:55 PM 64.4 °F - 41.0 °F 42% 29.89 in 10.0 mi SSE 16.1 mph - N/A   Clear
6:55 PM 59.0 °F - 41.0 °F 51% 29.81 in 10.0 mi SE 9.2 mph - N/A   Clear
7:55 PM 57.2 °F - 41.0 °F 55% 29.83 in 10.0 mi ESE 9.2 mph - N/A   Clear
8:55 PM 55.4 °F - 41.0 °F 58% 29.84 in 10.0 mi ESE 9.2 mph - N/A   Clear
9:55 PM 53.6 °F - 41.0 °F 62% 29.85 in 10.0 mi ESE 8.1 mph - N/A   Clear
10:35 PM 54.1 °F - 41.9 °F 63% 29.86 in 10.0 mi SE 8.1 mph - N/A   Clear
10:55 PM 53.8 °F - 41.9 °F 64% 29.85 in 10.0 mi SE 8.1 mph - N/A   Clear
11:15 PM 53.8 °F - 41.9 °F 64% 29.85 in 10.0 mi SE 6.9 mph - N/A   Clear
11:35 PM 53.2 °F - 41.9 °F 65% 29.85 in 10.0 mi SE 6.9 mph - N/A   Clear
11:55 PM 52.9 °F - 42.1 °F 67% 29.86 in 10.0 mi SE 4.6 mph - N/A   Clear